Location: Camp Crooked Creek
(37.9149°N, 85.6607°W)
Time: 15:45:04
(UTC-04:00)

Amateur Radio Satellites - All Passes

Search period start: 18 September 2014 15:15
Search period end: 19 September 2014 15:15
Location: Camp Crooked Creek, 37.9149°N, 85.6607°W

Satellite Date Start Highest point End Downlink Frequencies (MHz)
Time Altitude Azimuth
TMSAT-1 18 Sep 15:24:42 15:29:38 41° 71° (ENE) 15:34:34 436.925 FM
Oscar 19 18 Sep 15:27:21 15:31:40 26° 265° (W) 15:36:01 437.125 CW, 437.150 USB
JAS-1B 18 Sep 15:37:00 15:45:45 58° 258° (WSW) 15:53:10 435.800 - 435.900 CW/SSB
RS-15 18 Sep 15:37:55 15:48:49 62° 247° (WSW) 16:00:11 29.354 - 29.394 USB, Beacon 29.352 USB
AO-7 18 Sep 15:38:07 15:44:30 26° 57° (ENE) 15:50:53 29.400 - 29.500 MHz
Sapphire 18 Sep 15:38:27 15:40:08 11° 318° (NW) 15:41:50 437.095 MHz 1200 baud AX-25 AFSK
AO-27 18 Sep 15:41:14 15:46:09 44° 261° (W) 15:51:06 436.795 MHz FM
Uosat F 18 Sep 16:01:02 16:03:55 16° 63° (ENE) 16:06:49 435.120 FM
Oscar 16 18 Sep 16:10:26 16:10:43 10° 271° (W) 16:11:00 437.025 USB, Beacon 2401.1428
Gurwin Techsat 1B 18 Sep 16:26:44 16:31:36 37° 262° (W) 16:36:30 435.225 FM
AO-Echo 18 Sep 16:32:35 16:33:59 11° 269° (W) 16:35:22 ?
TMSAT-1 18 Sep 17:05:38 17:09:40 22° 266° (W) 17:13:44 436.925 FM
AO-7 18 Sep 17:28:15 17:36:32 71° 255° (WSW) 17:44:51 29.400 - 29.500 MHz
Uosat F 18 Sep 17:37:17 17:42:12 58° 259° (W) 17:47:08 435.120 FM
JAS-2 18 Sep 17:47:19 17:51:21 23° 66° (ENE) 17:55:19 435.800 - 435.900 CW/SSB, 435.910 FM
Saudisat 1A 18 Sep 17:54:37 17:58:41 38° 115° (ESE) 18:02:46 436.775 MHz
Hamsat 18 Sep 17:57:25 18:00:42 21° 69° (ENE) 18:03:59 145.90 MHz
OPAL 18 Sep 18:36:02 18:41:14 84° 105° (ESE) 18:46:19 ?
MaSat-1 18 Sep 19:04:29 19:08:12 47° 62° (ENE) 19:11:22 437.345 MHz
STRAND 1 18 Sep 19:17:04 19:19:24 13° 91° (E) 19:21:43 ?
AO-7 18 Sep 19:28:38 19:30:34 11° 272° (W) 19:32:31 29.400 - 29.500 MHz
JAS-2 18 Sep 19:31:20 19:36:17 37° 262° (W) 19:41:05 435.800 - 435.900 CW/SSB, 435.910 FM
Hamsat 18 Sep 19:32:34 19:36:27 31° 263° (W) 19:40:20 145.90 MHz
Saudisat 1A 18 Sep 19:34:55 19:38:22 22° 312° (NW) 19:41:50 436.775 MHz
SO-67 18 Sep 20:14:35 20:18:01 69° 259° (W) 20:21:28 435.3500 MHz FM
KITSAT 1 18 Sep 20:16:54 20:24:48 62° 113° (ESE) 20:32:44 435.175 FM
OPAL 18 Sep 20:17:25 20:19:21 12° 302° (WNW) 20:21:16 ?
STRAND 1 18 Sep 20:53:54 20:59:00 66° 286° (WNW) 21:04:05 ?
Sapphire 18 Sep 20:59:51 21:00:57 11° 41° (NE) 21:02:04 437.095 MHz 1200 baud AX-25 AFSK
UKube-1 18 Sep 21:19:08 21:21:33 15° 65° (ENE) 21:23:58 145.840 MHz, 145.915 MHz
HO-68 18 Sep 21:23:05 21:29:57 54° 69° (ENE) 21:36:52 435.675 MHz FM
PCSat 18 Sep 21:25:03 21:28:42 18° 47° (NE) 21:32:20 145.825 MHz
KITSAT 1 18 Sep 22:13:38 22:20:39 32° 313° (NW) 22:27:43 435.175 FM
FUNcube-1 18 Sep 22:25:24 22:28:46 22° 68° (ENE) 22:32:11 145.950 - 145.970 MHz USB
Oscar 11 18 Sep 22:37:12 22:41:33 77° 76° (ENE) 22:45:56 145.825 FM, Beacon 2401.500 USB
Sapphire 18 Sep 22:40:03 22:45:28 64° 60° (ENE) 22:50:50 437.095 MHz 1200 baud AX-25 AFSK
UKube-1 18 Sep 22:53:11 22:57:20 46° 260° (W) 23:01:31 145.840 MHz, 145.915 MHz
PCSat 18 Sep 23:07:14 23:12:38 69° 245° (WSW) 23:18:00 145.825 MHz
HO-68 18 Sep 23:12:09 23:17:55 26° 265° (W) 23:23:44 435.675 MHz FM
SO-50 18 Sep 23:13:14 23:17:33 52° 116° (ESE) 23:21:59 436.795 FM
FUNcube-1 19 Sep 00:01:04 00:04:56 31° 264° (W) 00:08:56 145.950 - 145.970 MHz USB
Sapphire 19 Sep 00:25:11 00:28:17 16° 256° (WSW) 00:31:22 437.095 MHz 1200 baud AX-25 AFSK
SO-50 19 Sep 00:55:16 00:58:25 18° 314° (NW) 01:01:38 436.795 FM
UOSAT-12 19 Sep 00:56:03 01:00:27 47° 116° (ESE) 01:04:57 437.025 FM, 437.400 FM
AO-40 19 Sep 01:54:17 03:01:33 16° 237° (WSW) 04:46:02 Beacon 2401.320
Oscar 19 19 Sep 02:02:41 02:05:08 13° 91° (E) 02:07:33 437.125 CW, 437.150 USB
Saudisat 1A 19 Sep 02:23:15 02:26:38 21° 48° (NE) 02:30:00 436.775 MHz
ISS 19 Sep 02:27:27 02:28:21 11° 127° (SE) 02:29:16 145.800 FM
UOSAT-12 19 Sep 02:37:21 02:40:51 21° 313° (NW) 02:44:24 437.025 FM, 437.400 FM
Oscar 16 19 Sep 02:39:33 02:44:13 33° 97° (E) 02:48:50 437.025 USB, Beacon 2401.1428
PANSAT 19 Sep 02:42:41 02:44:30 13° 165° (SSE) 02:46:20 not established
AO-Echo 19 Sep 02:59:17 03:03:11 24° 96° (E) 03:07:09 ?
Gurwin Techsat 1B 19 Sep 03:07:46 03:08:59 11° 89° (E) 03:10:13 435.225 FM
ITAMSAT 1 19 Sep 03:21:14 03:25:57 34° 97° (E) 03:30:39 435.822 SSB
JAS-1B 19 Sep 03:25:06 03:30:29 41° 99° (E) 03:35:53 435.800 - 435.900 CW/SSB
Uribyol 2 19 Sep 03:25:31 03:30:26 40° 99° (E) 03:35:18 436.500 FM
Oscar 10/S400 19 Sep 03:29:31 04:42:25 32° 240° (WSW) 08:35:28 145.825 - 145.975 CW/USB, Beacon 145.810 USB
Oscar 19 19 Sep 03:39:46 03:44:54 65° 286° (WNW) 03:49:58 437.125 CW, 437.150 USB
TMSAT-1 19 Sep 03:43:09 03:46:51 19° 93° (E) 03:50:31 436.925 FM
RS-15 19 Sep 03:49:55 03:58:13 25° 103° (ESE) 04:06:22 29.354 - 29.394 USB, Beacon 29.352 USB
AO-27 19 Sep 03:55:41 04:00:55 76° 103° (ESE) 04:06:08 436.795 MHz FM
ISS 19 Sep 04:01:20 04:04:38 68° 322° (NW) 04:07:58 145.800 FM
Saudisat 1A 19 Sep 04:02:13 04:06:21 41° 245° (WSW) 04:10:28 436.775 MHz
KITSAT 1 19 Sep 04:12:35 04:18:55 24° 42° (NE) 04:25:12 435.175 FM
OPAL 19 Sep 04:13:08 04:16:01 15° 60° (ENE) 04:18:55 ?
Oscar 16 19 Sep 04:19:06 04:23:24 27° 293° (WNW) 04:27:41 437.025 USB, Beacon 2401.1428
PANSAT 19 Sep 04:21:13 04:24:03 20° 178° (S) 04:26:52 not established
AO-Echo 19 Sep 04:37:37 04:41:58 34° 290° (WNW) 04:46:25 ?
Gurwin Techsat 1B 19 Sep 04:44:11 04:49:31 81° 285° (WNW) 04:54:49 435.225 FM
ITAMSAT 1 19 Sep 05:00:57 05:05:17 27° 293° (WNW) 05:09:37 435.822 SSB
Uribyol 2 19 Sep 05:05:34 05:09:38 24° 294° (WNW) 05:13:42 436.500 FM
JAS-1B 19 Sep 05:16:32 05:20:55 23° 296° (WNW) 05:25:15 435.800 - 435.900 CW/SSB
TMSAT-1 19 Sep 05:21:54 05:26:59 49° 288° (WNW) 05:32:04 436.925 FM
AO-7 19 Sep 05:31:59 05:39:49 45° 100° (E) 05:47:37 29.400 - 29.500 MHz
AO-27 19 Sep 05:37:26 05:39:45 13° 299° (WNW) 05:42:03 436.795 MHz FM
ISS 19 Sep 05:40:05 05:41:52 14° 340° (NNW) 05:43:39 145.800 FM
Uosat F 19 Sep 05:46:43 05:51:35 49° 100° (E) 05:56:27 435.120 FM
OPAL 19 Sep 05:49:09 05:54:17 68° 256° (WSW) 05:59:30 ?
RS-15 19 Sep 05:58:15 06:09:20 78° 302° (WNW) 06:20:19 29.354 - 29.394 USB, Beacon 29.352 USB
PANSAT 19 Sep 06:01:13 06:03:38 16° 191° (S) 06:06:02 not established
KITSAT 1 19 Sep 06:07:09 06:15:16 84° 243° (WSW) 06:23:19 435.175 FM
STRAND 1 19 Sep 06:31:15 06:34:28 17° 64° (ENE) 06:37:41 ?
JAS-2 19 Sep 06:40:11 06:45:25 28° 97° (E) 06:51:10 435.800 - 435.900 CW/SSB, 435.910 FM
Hamsat 19 Sep 07:19:38 07:23:48 51° 99° (E) 07:27:52 145.90 MHz
AO-7 19 Sep 07:24:58 07:32:26 40° 298° (WNW) 07:39:54 29.400 - 29.500 MHz
Uosat F 19 Sep 07:26:35 07:29:58 18° 296° (WNW) 07:33:21 435.120 FM
SO-50 19 Sep 07:46:28 07:50:47 32° 51° (NE) 07:55:08 436.795 FM
KITSAT 1 19 Sep 08:05:33 08:09:25 14° 260° (W) 08:13:17 435.175 FM
STRAND 1 19 Sep 08:08:14 08:13:11 54° 259° (W) 08:18:11 ?
RS-15 19 Sep 08:15:15 08:23:45 25° 328° (NNW) 08:32:19 29.354 - 29.394 USB, Beacon 29.352 USB
JAS-2 19 Sep 08:24:51 08:30:31 44° 289° (WNW) 08:36:51 435.800 - 435.900 CW/SSB, 435.910 FM
MaSat-1 19 Sep 08:47:38 08:52:07 34° 107° (ESE) 08:56:37 437.345 MHz
ISS 19 Sep 08:55:55 08:57:47 14° 21° (NNE) 08:59:38 145.800 FM
Hamsat 19 Sep 08:57:22 08:59:16 13° 295° (WNW) 09:01:10 145.90 MHz
SO-67 19 Sep 09:12:52 09:16:10 43° 285° (WNW) 09:19:26 435.3500 MHz FM
SO-50 19 Sep 09:27:06 09:31:17 30° 247° (WSW) 09:35:30 436.795 FM
UOSAT-12 19 Sep 09:27:32 09:31:36 27° 50° (NE) 09:35:35 437.025 FM, 437.400 FM
MaSat-1 19 Sep 10:24:35 10:28:54 28° 302° (WNW) 10:33:10 437.345 MHz
Oscar 11 19 Sep 10:27:58 10:30:38 16° 93° (E) 10:33:16 145.825 FM, Beacon 2401.500 USB
ISS 19 Sep 10:31:39 10:34:59 73° 39° (NE) 10:38:18 145.800 FM
RS-15 19 Sep 10:36:04 10:41:56 15° 5° (N) 10:47:52 29.354 - 29.394 USB, Beacon 29.352 USB
HO-68 19 Sep 10:39:52 10:47:02 66° 103° (ESE) 10:54:09 435.675 MHz FM
UKube-1 19 Sep 10:43:13 10:47:08 32° 98° (E) 10:51:02 145.840 MHz, 145.915 MHz
UOSAT-12 19 Sep 11:07:32 11:11:45 33° 247° (WSW) 11:15:54 437.025 FM, 437.400 FM
FUNcube-1 19 Sep 11:51:19 11:55:54 58° 100° (E) 12:00:23 145.950 - 145.970 MHz USB
Oscar 11 19 Sep 12:02:54 12:06:58 40° 288° (WNW) 12:11:00 145.825 FM, Beacon 2401.500 USB
PCSat 19 Sep 12:05:40 12:09:26 20° 105° (ESE) 12:13:13 145.825 MHz
ISS 19 Sep 12:10:54 12:11:14 10° 233° (SW) 12:11:35 145.800 FM
UKube-1 19 Sep 12:19:52 12:23:07 21° 293° (WNW) 12:26:21 145.840 MHz, 145.915 MHz
HO-68 19 Sep 12:28:45 12:34:06 23° 300° (WNW) 12:39:28 435.675 MHz FM
RS-15 19 Sep 12:49:44 12:59:23 33° 40° (NE) 13:09:17 29.354 - 29.394 USB, Beacon 29.352 USB
Oscar 19 19 Sep 13:17:40 13:21:05 18° 64° (ENE) 13:24:30 437.125 CW, 437.150 USB
Sapphire 19 Sep 13:19:52 13:25:15 86° 116° (ESE) 13:30:42 437.095 MHz 1200 baud AX-25 AFSK
FUNcube-1 19 Sep 13:29:27 13:31:45 14° 296° (WNW) 13:34:01 145.950 - 145.970 MHz USB
AO-27 19 Sep 13:37:00 13:38:34 11° 60° (ENE) 13:40:08 436.795 MHz FM
PCSat 19 Sep 13:47:09 13:52:24 52° 301° (WNW) 13:57:42 145.825 MHz
Oscar 16 19 Sep 13:54:42 13:59:33 41° 71° (ENE) 14:04:24 437.025 USB, Beacon 2401.1428
Oscar 10/S400 19 Sep 13:57:00 14:12:09 16° 153° (SSE) 14:22:56 145.825 - 145.975 CW/USB, Beacon 145.810 USB
JAS-1B 19 Sep 14:06:38 14:14:25 40° 68° (ENE) 14:21:05 435.800 - 435.900 CW/SSB
AO-Echo 19 Sep 14:11:03 14:14:54 25° 68° (ENE) 14:18:44 ?
Gurwin Techsat 1B 19 Sep 14:26:15 14:29:27 16° 63° (ENE) 14:32:39 435.225 FM
ITAMSAT 1 19 Sep 14:37:33 14:42:24 43° 71° (ENE) 14:47:17 435.822 SSB
Uribyol 2 19 Sep 14:41:41 14:46:39 51° 72° (ENE) 14:51:39 436.500 FM
AO-7 19 Sep 14:45:00 14:45:58 10° 45° (NE) 14:46:55 29.400 - 29.500 MHz
Oscar 19 19 Sep 14:54:54 14:59:58 54° 260° (W) 15:05:04 437.125 CW, 437.150 USB
TMSAT-1 19 Sep 15:02:09 15:06:26 26° 67° (ENE) 15:10:44 436.925 FM
Sapphire 19 Sep 15:06:22 15:09:24 15° 315° (NW) 15:12:27 437.095 MHz 1200 baud AX-25 AFSK
